Tracking 19817 objects as of 20-Aug-2019
HD Live streaming from Space Station
objects crossing your sky now

THORAD DELTA 1 DEB

Track THORAD DELTA 1 DEB now!
10-day predictions


NORAD ID: 42602
Int'l Code: 1974-089FT
Perigee: 1,384.3 km
Apogee: 1,902.6 km
Inclination: 101.4 °
Period: 119.0 minutes
Semi major axis: 8014 km
RCS: Unknown
Launch date: November 15, 1974
Source: United States (US)
Launch site: AIR FORCE WESTERN TEST RANGE (AFWTR)

Note: This is SATELLITE DEBRIS
aabbcc
Your satellite tracking list
Your tracking list is empty




NASA's NSSDC Master Catalog

Two Line Element Set (TLE):
1 42602U 74089FT  19228.38729072  .00000142  00000-0  16993-2 0  9999
2 42602 101.4049  65.2050 0323376 294.4869  62.2778 12.10013386667982
Source of the keplerian elements: AFSPC